STARLINK-33845, 63495

Orbit data source: Space-Track

STARLINK-33845, 63495 is a payload satellite in LEO that was launched on Mon, 07 Apr 2025 UTC via an FALCON 9 launch vehicle from the Air Force Western Test Range (AFWTR). Payload-class satellites include a variety of spacecraft equipped with specific instruments for various scientific and technological missions. These include communications satellites like Starlink; space stations such as the ISS; scientific satellites like the Hubble; Earth observation satellites from companies like Planet Labs, Umbra, and HawkEye 360; GPS; miniature CubeSats for education and research; and military/defense satellites.

Loading next visibility...
Identifier
63495, 2025-071C
Orbit
LEO
Last TLE update
11 hours ago
Origin
Manufacturer
SpaceX/Seattle
Mission
Operational Commercial Communications
Bus & Motor
STARLINK V2MO, Unknown motor
Mass
575 kg wet, ~530 kg dry
Launch date (UTC)
2025-04-07 (1 month ago)
Launch vehicle
FALCON 9
Launch site
Air Force Western Test Range (AFWTR)
Object type
Payload
Rocket body
Debris
Shape & HBR
Box + 1 Pan, 29 m
Radar Cross Section
41.120 m², Large (>1 m²)

Expand to show TLE details & history

TLE from 11 hours ago
0 STARLINK-33845
1 63495U 25071C   25140.25002315  .00055572  00000-0  13907-2 0  9998
2 63495  53.1602  66.6872 0001099  79.6559 149.6854 15.39586437  7769
Epoch: 2025-05-20T06:00Z
TLE epoch observation values (Epoch: 2025-05-20T06:00:02Z)
Latitude
-37.59376°
Longitude
-46.46903°
Altitude
460.158 km
Speed
7.636 km/s
True Right ascension
18h 46m 45s
True Declination
-37° 25' 14"
Sunlit
Object was in full shadow at epoch
Visualization orbit readout
Latitude
-52.43917°
Longitude
-7.9875°
Altitude
466.134 km
Speed
7.633 km/s
Apparent Right ascension
17h 12m 22s
Apparent Declination
-61° 21' 07"
Sunlit
Object is in daylight
Visualization observer readout
Local Sidereal Time
01:56:36
Azimuth
217.506° SW
Elevation
-53.575°
Doppler factor
1
Orbital elements
Apogee altitude
448.339 km
Perigee altitude
446.839 km
Semi-major axis
6,825.726 km
Eccentricity
0.00011
Inclination
53.1602°
RAAN
66.6872°
Arg. of periapsis
79.6559°
True anomaly
Unknown
Mean anomaly
149.6854°
Eccentric anomaly
Unknown
Mean motion
3.84875 °/min
Orbital period
93.54 mins
BSTAR
0.0013907
Loading maneuver chart data...
Loading SW <> Apogee altitude chart data...
Loading historical data...
Loading historical data...
Loading historical data...
Loading historical data...
Loading historical data...
Loading historical data...
Loading historical data...

STARLINK-33845 Visibility forecast

Observer location: undefined°, undefined°

Span
Click to sort rows by Start time (UTC) header in descending order
Start Az.
Max El. time (UTC)
Max El. Az.
Max El.
End time (UTC)
End Az.
4 mins2025-05-20 20:44:39.777Z168.517° S2025-05-20 20:46:39.777Z129.632° SE17.465°2025-05-20 20:48:39.777Z90.084° ESE
5 mins2025-05-20 22:21:39.777Z258.095° W2025-05-20 22:23:39.777Z320.779° NNW36.196°2025-05-20 22:26:39.777Z38.015° NE
4 mins2025-05-21 04:54:39.777Z291.872° WNW2025-05-21 04:56:39.777Z186.386° SSW38.429°2025-05-21 04:58:39.777Z147.581° SSE
|